User: anonymous   Login
Location: Unspecified
(0.0000°N, 0.0000°E)
Time: 06:12:14
(UTC+00:00)
Language:

AEROCUBE 2 - Orbit

View from above orbital plane
View from above orbital plane
View from above satellite
View from above satellite

Ground track
Ground track

The orbit data is extracted from the following two-line orbital elements,

1 31133U 07012R   18116.32216801  .00000118  00000-0  34206-4 0  9990
2 31133  98.0738  67.6137 0079445 240.0282 119.3015 14.58980477586096
Epoch (UTC): 26 April 2018 07:43:55
Eccentricity: 0.0079445
inclination: 98.0738°
perigee height: 640 km
apogee height: 752 km
right ascension of ascending node: 67.6137°
argument of perigee: 240.0282°
revolutions per day: 14.58980477
mean anomaly at epoch: 119.3015°
orbit number at epoch: 58609

The dashed part of the orbit path shows where the satellite is in the earth's shadow,  

DLR